[[{"header":{"parameterUnit":"m.s-1","parameterCategory":1,"la1":30.2991,"la2":30.254,"lo1":-89.0895,"lo2":-89.0444,"dy":0.0017,"dx":0.0017,"nx":28,"ny":28,"refTime":"2024-07-10T21:00:00:Z","depth":0,"parameterNumber":2,"parameterNumberName":"U-component_of_WINDS"},"data":[0,0,0,0,0,0,0,0,0,0,0,0,0,0,0,0,0,0,0,0,0,0,0,0,0,0,0,0,0,0,0,0,0,0,0,0,0,0,0,0,0,0,0,0,0,0,0,0,0,0,0,0,0,0,0,0,0,0,2.8813,2.8814,0,2.8925,2.8926,2.8927,2.8903,2.8901,2.8899,2.8897,2.9012,2.9017,2.9022,0,0,0,0,0,0,0,0,0,0,0,0,0,2.8578,2.8582,2.8813,2.8814,2.8815,2.8924,2.8926,2.8927,2.8903,2.8901,2.8898,2.8896,2.901,2.9016,2.9022,0,0,0,0,0,0,0,0,0,0,0,0,0,2.8684,2.8584,2.8812,2.8816,2.8818,2.8924,2.8926,2.8928,2.8904,2.8901,2.8898,2.8895,2.9008,2.9016,2.9023,2.9132,0,0,2.9046,2.9049,0,0,0,0,0,0,0,0,2.8678,2.8692,2.8814,2.8816,2.8818,2.8897,2.8885,2.8996,2.8905,2.8871,2.8897,2.8893,2.8976,2.8986,2.9014,2.9138,2.9142,2.9047,2.9051,2.9054,2.9057,0,0,0,0,0,0,0,2.867,2.8687,2.8857,2.8816,2.8819,2.8813,2.8824,2.8906,2.894,2.8874,2.8872,2.8886,2.8977,2.9007,2.9016,2.9144,2.9046,2.9053,2.9058,2.9061,2.9361,2.9364,0,0,0,0,0,0,2.8661,2.8681,2.8853,2.886,2.8739,2.8819,2.8832,2.8875,2.8939,2.8946,2.8888,2.8884,2.8995,2.9008,2.902,2.9151,2.9054,2.9061,2.9066,2.9358,2.9362,2.9366,0,0,0,0,0,0,2.8656,2.8677,2.8849,2.877,2.8792,2.8827,2.8874,2.8878,2.8909,2.895,2.8956,2.8913,2.8993,2.901,2.9104,2.9155,2.9065,2.9072,2.9354,2.9359,2.9364,2.9414,0,0,0,0,0,0,2.865,2.8675,2.8717,2.8772,2.8796,2.8931,2.8878,2.8883,2.8922,2.8917,2.8975,2.8981,2.8992,2.9093,2.9112,2.9163,2.9078,2.9349,2.9356,2.9362,2.9407,2.942,2.943,0,0,0,0,0,2.8641,2.8727,2.872,2.874,2.8849,2.8934,2.8948,2.8959,2.8926,2.8968,2.8994,2.8979,2.9146,2.9103,2.9124,2.9178,2.9346,2.9354,2.9362,2.9402,2.9417,2.943,0,0,0,0,0,0,2.8679,2.8735,2.8726,2.8833,2.8879,2.8929,2.8983,2.8974,2.9031,2.9025,2.9036,2.9049,2.9145,2.9171,2.9122,2.9286,2.9241,2.9254,2.9265,2.928,2.9291,2.9282,2.9084,0,0,0,0,0,2.8699,2.8763,2.8809,2.8898,2.8921,2.8948,2.8985,2.899,2.9038,2.9057,2.9091,2.9138,2.9201,2.9242,2.9303,2.9412,2.9423,2.9459,2.9471,2.948,2.949,2.9548,2.9564,2.9391,2.9391,2.9391,0,0,2.8742,2.8781,2.882,2.8906,2.8942,2.9007,2.8965,2.9036,2.9085,2.9068,2.9159,2.9185,2.9238,2.934,2.9387,2.9365,2.954,2.949,2.9497,2.9502,2.9558,2.9574,2.9588,2.9397,2.9396,2.9395,0,0,2.8853,2.889,2.8967,2.9004,2.9059,2.9076,2.9095,2.9147,2.9163,2.9255,2.9243,2.9301,2.941,2.9448,2.9481,2.9606,2.9594,2.9626,2.9685,2.9741,2.9755,2.9767,2.9809,2.9825,2.9636,2.9636,2.9636,0,2.89,2.8998,2.9008,2.908,2.9117,2.9105,2.9183,2.9219,2.9291,2.9317,2.9292,2.9427,2.9462,2.9572,2.9602,2.963,2.9651,2.9618,2.9752,2.9764,2.9775,2.9816,2.9833,2.9639,2.9639,2.9639,2.9638,0,2.9051,2.912,2.9176,2.9244,2.9288,2.9363,2.9384,2.9428,2.9428,2.9448,2.954,2.9582,2.965,2.9676,2.9678,2.9786,2.9771,2.9749,2.9704,2.9795,2.9834,2.985,2.9644,2.9643,2.9642,2.9641,0,0,2.9189,2.9262,2.9282,2.9312,2.9372,2.9425,2.9499,2.9564,2.9601,2.9651,2.9712,2.9804,2.9784,2.9822,2.9828,2.9878,2.9971,2.9849,2.9851,2.9869,3.0091,3.0105,3.0124,2.9964,2.9967,2.997,3.0086,0,2.9304,2.9434,2.9445,2.9561,2.9624,2.9613,2.9677,2.972,2.974,2.9796,2.9819,2.9883,2.9852,2.9875,2.9924,2.995,3.0016,2.9942,3.002,3.0023,3.0005,3.0144,3.016,3.0268,3.0101,3.0104,3.0106,0,2.9457,2.951,2.9632,2.9682,2.9708,2.9766,2.9826,2.988,2.9928,2.9939,2.9982,2.998,3.0056,3.0008,3.0112,3.0061,3.0094,3.0111,3.0116,3.0122,3.0069,3.0153,3.0302,3.0318,3.013,3.0128,3.0126,0,2.9542,2.9645,2.9731,2.9758,2.9818,2.9858,2.9885,2.9931,2.9969,3.0022,3.0047,3.0108,3.0142,3.0189,3.0204,3.0169,3.0306,3.0261,3.0317,3.0316,3.0345,3.0342,3.05,3.0369,3.0369,3.0369,3.0368,0,2.9669,2.9744,2.977,2.9823,2.9906,2.9918,3.0,3.0025,3.0065,3.0122,3.0117,3.0171,3.0188,3.0245,3.0257,3.0339,3.0355,3.0366,3.0368,3.0365,3.0364,3.0386,3.0378,3.0373,3.0372,3.0371,3.037,0,2.9779,2.9799,2.9892,2.9941,2.9955,3.0014,3.0056,3.0106,3.0126,3.0198,3.0215,3.0246,3.0312,3.0332,3.0412,3.042,3.0516,3.0513,3.0499,3.0499,3.0553,3.0547,3.0729,3.0753,3.0608,3.0609,3.0611,0,2.9857,2.9914,2.9969,3.0006,3.0035,3.0096,3.0134,3.0148,3.0189,3.0247,3.0291,3.0356,3.0408,3.0515,3.0544,3.0604,3.0601,3.0661,3.061,3.0605,3.06,3.0595,3.06,3.067,3.0671,3.0672,3.0673,0,2.9994,3.0001,3.0057,3.0117,3.0163,3.0211,3.0256,3.0287,3.0307,3.0353,3.042,3.0461,3.0542,3.0606,3.0668,3.0695,3.0688,3.0689,3.0705,3.0702,3.0691,3.0696,3.0523,3.0685,3.0684,3.0683,3.0682,3.0682,3.009,3.0139,3.0185,3.0247,3.0282,3.0325,3.0374,3.0399,3.0455,3.0522,3.0527,3.0599,3.0645,3.0726,3.0757,3.0813,3.0796,3.0819,3.0825,3.083,3.0833,3.0684,3.0825,3.0825,3.0824,3.0824,3.0824,0,3.0225,3.0253,3.031,3.0374,3.0422,3.0411,3.046,3.0502,3.0565,3.0608,3.066,3.0736,3.0798,3.0832,3.0894,3.0932,3.093,3.0948,3.0944,3.095,3.0846,3.0826,3.0949,3.0949,3.0949,3.0949,3.0948,3.0948,3.0301,3.0383,3.0395,3.0495,3.0523,3.0593,3.0622,3.0661,3.0696,3.0781,3.0832,3.0854,3.0893,3.0957,3.1013,3.1022,3.1044,3.1063,3.1069,3.0971,3.0958,3.0946,3.0926,3.1068,3.1069,3.1168,3.1169,3.117]},{"header":{"parameterUnit":"m.s-1","parameterCategory":1,"la1":30.2991,"la2":30.254,"lo1":-89.0895,"lo2":-89.0444,"dy":0.0017,"dx":0.0017,"nx":28,"ny":28,"refTime":"2024-07-10T21:00:00:Z","depth":0,"parameterNumber":3,"parameterNumberName":"V-component_of_WINDS"},"data":[0,0,0,0,0,0,0,0,0,0,0,0,0,0,0,0,0,0,0,0,0,0,0,0,0,0,0,0,0,0,0,0,0,0,0,0,0,0,0,0,0,0,0,0,0,0,0,0,0,0,0,0,0,0,0,0,0,0,-0.6828,-0.6829,0,-0.6855,-0.6856,-0.6856,-0.6865,-0.6865,-0.6865,-0.6865,-0.6891,-0.6892,-0.6893,0,0,0,0,0,0,0,0,0,0,0,0,0,-0.6784,-0.6785,-0.6828,-0.6829,-0.6829,-0.6855,-0.6856,-0.6856,-0.6865,-0.6865,-0.6865,-0.6865,-0.6891,-0.6892,-0.6893,0,0,0,0,0,0,0,0,0,0,0,0,0,-0.6806,-0.6785,-0.6828,-0.6837,-0.6838,-0.6855,-0.6856,-0.6856,-0.6865,-0.6865,-0.6865,-0.6865,-0.6891,-0.6892,-0.6893,-0.6904,0,0,-0.6897,-0.6897,0,0,0,0,0,0,0,0,-0.6805,-0.6808,-0.6835,-0.6836,-0.6837,-0.6857,-0.685,-0.6872,-0.6865,-0.6855,-0.6865,-0.6864,-0.688,-0.6882,-0.6887,-0.6905,-0.6906,-0.6897,-0.6898,-0.6898,-0.6898,0,0,0,0,0,0,0,-0.6803,-0.6807,-0.6839,-0.6836,-0.6837,-0.6839,-0.6842,-0.6854,-0.6868,-0.6856,-0.6856,-0.6859,-0.688,-0.6886,-0.6888,-0.6907,-0.6897,-0.6898,-0.6899,-0.6899,-0.6936,-0.6936,0,0,0,0,0,0,-0.6801,-0.6805,-0.6838,-0.684,-0.682,-0.684,-0.6843,-0.6851,-0.6868,-0.687,-0.6859,-0.686,-0.6884,-0.6887,-0.6889,-0.6903,-0.6898,-0.6899,-0.69,-0.6935,-0.6936,-0.6936,0,0,0,0,0,0,-0.68,-0.6803,-0.6837,-0.6823,-0.6827,-0.6841,-0.6849,-0.6851,-0.6857,-0.6871,-0.6873,-0.6863,-0.6884,-0.6887,-0.69,-0.6904,-0.69,-0.6901,-0.6935,-0.6936,-0.6936,-0.6932,0,0,0,0,0,0,-0.6798,-0.6803,-0.6807,-0.6823,-0.6828,-0.6848,-0.6849,-0.6852,-0.6859,-0.686,-0.6875,-0.6877,-0.6884,-0.6899,-0.6902,-0.6906,-0.6902,-0.6935,-0.6935,-0.6936,-0.6931,-0.6932,-0.6932,0,0,0,0,0,-0.6797,-0.6805,-0.6807,-0.6811,-0.6834,-0.6848,-0.6851,-0.686,-0.686,-0.6864,-0.6873,-0.6876,-0.6903,-0.69,-0.6903,-0.6908,-0.6935,-0.6935,-0.6936,-0.6931,-0.6932,-0.6932,0,0,0,0,0,0,-0.6788,-0.6807,-0.681,-0.6823,-0.6834,-0.685,-0.6856,-0.686,-0.6871,-0.6871,-0.6881,-0.6884,-0.6897,-0.6904,-0.6899,-0.692,-0.6919,-0.6921,-0.6915,-0.6915,-0.6915,-0.6913,-0.6903,0,0,0,0,0,-0.6788,-0.6799,-0.6814,-0.6824,-0.683,-0.6842,-0.6848,-0.6854,-0.6866,-0.687,-0.688,-0.6891,-0.6902,-0.6909,-0.692,-0.6933,-0.6936,-0.6938,-0.6938,-0.6938,-0.6939,-0.6947,-0.6948,-0.6938,-0.6938,-0.6938,0,0,-0.6788,-0.6799,-0.6805,-0.6823,-0.6832,-0.6843,-0.6846,-0.6856,-0.6865,-0.6872,-0.6885,-0.6893,-0.6906,-0.6919,-0.6925,-0.6925,-0.6943,-0.6939,-0.6939,-0.694,-0.6948,-0.6949,-0.6949,-0.6938,-0.6938,-0.6938,0,0,-0.6792,-0.6802,-0.6812,-0.6821,-0.6835,-0.6843,-0.6846,-0.6861,-0.6867,-0.688,-0.6886,-0.6896,-0.6915,-0.6924,-0.6931,-0.694,-0.6944,-0.6943,-0.6945,-0.6952,-0.6953,-0.6954,-0.6957,-0.6958,-0.6944,-0.6944,-0.6944,0,-0.679,-0.6806,-0.6816,-0.6827,-0.6835,-0.6843,-0.6853,-0.6862,-0.6878,-0.6884,-0.6884,-0.6908,-0.6917,-0.6933,-0.6935,-0.6941,-0.6944,-0.6941,-0.6952,-0.6953,-0.6954,-0.6957,-0.6958,-0.6944,-0.6944,-0.6944,-0.6944,0,-0.6802,-0.6814,-0.682,-0.6837,-0.6846,-0.6856,-0.6868,-0.6875,-0.6881,-0.6889,-0.6903,-0.6914,-0.6928,-0.6932,-0.6937,-0.6949,-0.6948,-0.695,-0.695,-0.6954,-0.6958,-0.6959,-0.6944,-0.6944,-0.6944,-0.6944,0,0,-0.6801,-0.6825,-0.6827,-0.6835,-0.6851,-0.686,-0.6871,-0.6885,-0.6892,-0.6903,-0.6913,-0.6929,-0.6931,-0.6939,-0.6945,-0.6952,-0.6959,-0.6953,-0.6954,-0.6954,-0.6973,-0.6971,-0.6972,-0.6962,-0.6962,-0.6962,-0.6972,0,-0.6808,-0.6828,-0.6838,-0.6854,-0.6865,-0.6874,-0.6883,-0.6895,-0.6903,-0.6913,-0.6922,-0.6933,-0.6935,-0.694,-0.6947,-0.6957,-0.6963,-0.6956,-0.6971,-0.6971,-0.6967,-0.6974,-0.6972,-0.698,-0.6973,-0.6973,-0.6973,0,-0.6818,-0.6831,-0.6848,-0.6864,-0.6869,-0.6877,-0.6891,-0.6901,-0.6915,-0.692,-0.693,-0.6936,-0.6948,-0.6947,-0.6964,-0.6959,-0.6966,-0.6972,-0.6972,-0.6973,-0.6972,-0.6975,-0.6983,-0.6984,-0.6975,-0.6975,-0.6975,0,-0.6816,-0.6837,-0.685,-0.6857,-0.6876,-0.6882,-0.689,-0.6903,-0.6911,-0.6923,-0.6929,-0.6942,-0.6949,-0.6959,-0.6969,-0.6968,-0.6985,-0.6985,-0.699,-0.699,-0.6993,-0.6992,-0.7001,-0.6997,-0.6997,-0.6997,-0.6997,0,-0.6822,-0.6832,-0.6849,-0.6857,-0.6869,-0.6881,-0.6892,-0.6901,-0.6913,-0.6923,-0.6931,-0.694,-0.6952,-0.6963,-0.6971,-0.6984,-0.6987,-0.6992,-0.6994,-0.6991,-0.699,-0.6995,-0.6994,-0.6998,-0.6998,-0.6998,-0.6998,0,-0.6821,-0.6833,-0.6848,-0.6865,-0.687,-0.6878,-0.6893,-0.6901,-0.691,-0.6922,-0.6926,-0.694,-0.6953,-0.6964,-0.6981,-0.6987,-0.7,-0.7002,-0.6996,-0.6997,-0.7001,-0.7,-0.7013,-0.7015,-0.701,-0.701,-0.701,0,-0.6824,-0.6833,-0.6851,-0.6859,-0.6867,-0.6879,-0.6887,-0.6899,-0.6907,-0.6924,-0.693,-0.6944,-0.6955,-0.6976,-0.6988,-0.7001,-0.7004,-0.7007,-0.7006,-0.7003,-0.7003,-0.7003,-0.7004,-0.7007,-0.7007,-0.7007,-0.7007,0,-0.6829,-0.6834,-0.6846,-0.6861,-0.6871,-0.6882,-0.6894,-0.69,-0.6914,-0.6923,-0.6937,-0.6946,-0.6964,-0.6978,-0.6993,-0.7001,-0.7006,-0.7008,-0.7009,-0.7006,-0.7002,-0.7004,-0.6996,-0.7007,-0.7007,-0.7007,-0.7007,-0.7007,-0.683,-0.6838,-0.6852,-0.6865,-0.6876,-0.6887,-0.6896,-0.6906,-0.6918,-0.6934,-0.694,-0.6954,-0.6968,-0.6988,-0.6997,-0.7008,-0.7009,-0.7012,-0.7012,-0.7013,-0.7012,-0.7001,-0.7011,-0.7011,-0.7011,-0.7011,-0.7011,0,-0.6834,-0.6844,-0.6856,-0.6873,-0.6884,-0.6889,-0.6902,-0.6911,-0.6923,-0.6936,-0.6947,-0.6964,-0.6977,-0.699,-0.7005,-0.7011,-0.7014,-0.7014,-0.7014,-0.7016,-0.7011,-0.7008,-0.7012,-0.7012,-0.7012,-0.7012,-0.7012,-0.7012,-0.6838,-0.6852,-0.6859,-0.6878,-0.6888,-0.6902,-0.691,-0.692,-0.693,-0.6948,-0.696,-0.6968,-0.6981,-0.6996,-0.7009,-0.7013,-0.7018,-0.7017,-0.7021,-0.7016,-0.7016,-0.7016,-0.7013,-0.7018,-0.7018,-0.7026,-0.7026,-0.7026]}]]